EW5401 Weather Reports


Display with metric or nautical units.
time (UTC)temp
F
wind
direction
speed
MPH
gust
MPH
rain 1hr
in
rain 24hr
in
rain mn
in
humidity
%
barometer
mb
20260901220017 67 276 0.0 6.0 0.00 1.28 1.26 93 1015.2
20260901214513 67 317 2.0 5.0 0.00 1.28 1.26 93 1015.1
20260901213013 68 360 1.0 5.0 0.00 1.28 1.26 93 1014.9
20260901211514 68 360 1.0 4.0 0.00 1.28 1.26 94 1014.8
20260901210011 69 22 1.0 4.0 0.01 1.28 1.26 94 1014.7
20260901204514 69 211 1.0 6.0 0.01 1.28 1.26 94 1014.6
20260901203019 69 16 1.0 3.0 0.01 1.28 1.26 95 1014.5
20260901201510 69 31 1.0 3.0 0.02 1.28 1.26 95 1014.3
20260901200022 69 30 0.0 3.0 0.01 1.27 1.25 95 1014.3
20260901194508 69 47 2.0 6.0 0.05 1.27 1.25 95 1014.3
20260901193008 69 17 1.0 4.0 0.13 1.27 1.25 95 1014.1
20260901191512 69 15 0.0 3.0 0.13 1.26 1.24 95 1014.1
20260901190017 69 360 1.0 4.0 0.13 1.26 1.24 95 1014.0
20260901184505 69 36 0.0 2.0 0.17 1.21 1.19 95 1014.1
20260901183019 69 36 0.0 3.0 0.23 1.13 1.12 95 1014.3
20260901181506 69 36 0.0 3.0 0.35 1.12 1.11 95 1014.1
20260901180003 69 30 1.0 3.0 0.64 1.12 1.10 95 1014.1
20260901174504 69 80 1.0 3.0 0.56 1.03 1.01 95 1013.9
20260901173111 69 94 2.0 4.0 0.45 0.92 0.90 94 1014.0
20260901171617 69 62 2.0 4.0 0.32 0.79 0.77 94 1013.7
20260901171501 69 62 2.0 4.0 0.30 0.77 0.75 94 1013.7
20260901170104 69 62 1.0 3.0 0.02 0.49 0.47 93 1013.9
20260901164633 69 62 1.0 4.0 0.00 0.47 0.45 93 1013.6
20260901163059 69 328 0.0 3.0 0.00 0.47 0.45 93 1013.7
20260901161555 69 66 1.0 3.0 0.00 0.47 0.45 93 1014.2
20260901160058 69 140 0.0 3.0 0.00 0.47 0.45 93 1014.1
20260901154554 69 140 0.0 3.0 0.00 0.47 0.45 93 1014.2
20260901153054 69 84 2.0 7.0 0.00 0.47 0.45 92 1014.1
20260901151555 69 148 3.0 8.0 0.00 0.47 0.45 94 1014.0
20260901150050 69 110 1.0 8.0 0.01 0.47 0.45 95 1014.0
20260901144549 68 85 2.0 6.0 0.01 0.47 0.45 95 1014.4
20260901143048 68 186 0.0 4.0 0.01 0.47 0.45 96 1014.3
20260901141556 68 86 0.0 2.0 0.01 0.47 0.45 96 1014.6
20260901140048 68 86 0.0 0.0 0.00 0.46 0.44 96 1014.6
20260901134546 68 86 1.0 2.0 0.00 0.46 0.44 96 1014.9
20260901133047 68 87 1.0 4.0 0.06 0.46 0.44 96 1014.9
20260901131544 68 295 1.0 2.0 0.11 0.46 0.44 96 1014.8
20260901130042 68 295 0.0 2.0 0.11 0.46 0.44 96 1014.8
20260901124551 68 295 0.0 0.0 0.11 0.45 0.43 96 1014.8
20260901123043 68 295 0.0 1.0 0.05 0.39 0.37 96 1014.8
20260901121547 68 295 0.0 2.0 0.01 0.35 0.33 96 1015.0
20260901120040 67 295 0.0 2.0 0.02 0.35 0.33 96 1014.9
20260901114539 67 295 0.0 2.0 0.03 0.34 0.32 96 1014.8
20260901113041 67 295 0.0 2.0 0.14 0.34 0.32 95 1014.7
20260901111542 67 295 1.0 3.0 0.17 0.34 0.32 95 1014.7
20260901110043 67 295 1.0 3.0 0.19 0.33 0.31 95 1014.6
20260901104534 67 128 0.0 3.0 0.22 0.32 0.28 95 1014.4
20260901103033 67 128 0.0 2.0 0.14 0.21 0.18 95 1014.3
20260901101533 67 128 0.0 0.0 0.13 0.18 0.15 95 1014.5
20260901100031 67 128 0.0 1.0 0.12 0.15 0.12 95 1014.3
20260901094531 67 128 0.0 0.0 0.06 0.09 0.06 95 1014.3
20260901093029 67 128 0.0 2.0 0.04 0.07 0.04 95 1014.4
20260901091540 67 128 0.0 1.0 0.02 0.05 0.02 95 1014.6
20260901090026 67 128 0.0 4.0 0.00 0.03 0.00 95 1014.6
20260901084526 67 128 0.0 1.0 0.00 0.03 0.00 95 1014.9
20260901083024 67 128 0.0 2.0 0.00 0.03 0.00 95 1014.8
20260901081520 66 128 0.0 0.0 0.00 0.03 0.00 95 1015.0
20260901080018 66 128 0.0 1.0 0.00 0.03 0.00 95 1015.3
20260901074518 66 128 0.0 3.0 0.00 0.03 0.00 95 1015.2
20260901073023 66 129 1.0 4.0 0.00 0.03 0.00 95 1015.4
20260901071517 66 206 0.0 3.0 0.00 0.03 0.00 94 1015.4
20260901070024 66 189 0.0 1.0 0.00 0.03 0.00 94 1015.3
20260901064513 66 189 0.0 0.0 0.00 0.03 0.00 94 1015.7
20260901063011 66 189 0.0 0.0 0.00 0.03 0.00 94 1015.9
20260901061509 66 189 0.0 0.0 0.00 0.03 0.00 94 1016.2
20260901060008 66 189 0.0 0.0 0.00 0.03 0.00 94 1016.0
20260901054507 66 189 0.0 0.0 0.00 0.03 0.00 94 1015.9
20260901053006 66 189 1.0 2.0 0.00 0.03 0.00 94 1015.8
20260901051504 66 189 0.0 0.0 0.00 0.03 0.00 94 1016.5
20260901050003 66 189 0.0 0.0 0.00 0.03 0.00 94 1016.6
20260901044501 66 189 0.0 0.0 0.00 0.03 0.00 94 1016.6
20260901043121 66 189 0.0 0.0 0.00 0.03 0.00 94 1016.4
20260901041611 66 189 0.0 0.0 0.00 0.03 0.00 94 1016.5
20260901040103 66 189 0.0 2.0 0.00 0.03 0.00 94 1016.5
20260901034604 66 189 0.0 0.0 0.00 0.03 0.03 93 1016.7
20260901033104 66 189 0.0 0.0 0.00 0.03 0.03 93 1016.8
20260901031554 66 189 0.0 1.0 0.00 0.03 0.03 93 1016.9
20260901030053 66 189 0.0 0.0 0.00 0.03 0.03 93 1016.9
20260901024555 66 189 0.0 0.0 0.00 0.03 0.03 93 1017.0
20260901023055 66 189 0.0 0.0 0.00 0.03 0.03 93 1017.2
20260901021555 66 189 0.0 0.0 0.00 0.03 0.03 93 1017.3
20260901020052 66 189 0.0 0.0 0.00 0.03 0.03 92 1017.2
20260901014552 66 189 0.0 2.0 0.00 0.03 0.03 92 1017.0
20260901013050 67 189 0.0 4.0 0.01 0.03 0.03 92 1017.1
20260901011556 67 186 0.0 4.0 0.02 0.03 0.03 91 1017.2
20260901010049 67 250 0.0 2.0 0.02 0.03 0.03 91 1017.3
20260901004548 68 198 1.0 4.0 0.02 0.03 0.03 90 1017.3
20260901003056 69 202 1.0 3.0 0.01 0.02 0.02 89 1017.3
20260901001548 69 213 1.0 3.0 0.00 0.01 0.01 88 1017.2
20260901000047 70 195 0.0 1.0 0.00 0.01 0.01 87 1016.9
20260831234546 70 195 0.0 1.0 0.00 0.13 0.01 87 1016.8
20260831233047 70 195 0.0 0.0 0.00 0.13 0.01 86 1016.9
20260831231545 71 195 0.0 1.0 0.00 0.13 0.01 85 1017.0
20260831230043 71 195 0.0 1.0 0.00 0.13 0.01 84 1017.1
20260831224543 72 246 0.0 2.0 0.00 0.13 0.01 84 1017.2
20260831223043 72 246 0.0 2.0 0.00 0.13 0.01 82 1017.2
20260831221544 73 246 0.0 2.0 0.00 0.13 0.01 82 1017.4